SCP
-0 -0 -0 -0 -0 -0 -0 -0 -0 -0 0 0 0 0 0 0 0 -0 0 0 -0 0 0 0 0 0 0 -0 0 -0 -0 0 0 0 0 0 -0 -0 -0 -0 -0 -0 -0 -0 -0 -0 -0 -0 -0
-0 -0 -0 0 0 -0 -0 0 0 0 0 0 -0 0 0 0 0 0 0 0 -0 0 0 0 0 0 -0 -0 0 0 -0 0 0 0 0 0 -0 -0 -0 -0 -0 -0 -0 0 0 -0 -0 -0 -0
-0 -0 0 0 0 0 -0 0 -0 0 0 0 0 -0 -0 0 -0 -0 0 0 -0 0 0 0 0 0 0 0 0 0 0 0 0 0 0 0 0 0 -0 0 0 0 0 0 -0 -0 -0 -0 -0
0 -0 0 0 -0 0 -0 -0 -0 0 0 0 -0 -0 0 0 -0 -0 -0 -0 -0 0 0 -0 0 0 0 0 0 -0 0 0 0 0 0 -0 0 0 0 0 0 0 0 -0 -0 0 -0 0 -0
0 0 0 0 0 0 0 -0 -0 0 0 0 0 0 0 0 0 -0 -0 -0 -0 0 0 0 0 0 -0 -0 0 -0 -0 -0 -0 -0 -0 -0 -0 -0 -0 -0 0 0 0 -0 -0 -0 0 0 0
0 0 0 0 0 0 0 0 -0 0 0 0 0 0 0 -0 0 0 -0 -0 0 0 0 0 0 0 0 0 0 0 0 0 -0 -0 -0 -0 0 -0 -0 -0 0 -0 -0 -0 -0 0 0 0 0
0 -0 0 0 0 0 0 0 -0 -0 0 0 0 0 0 -0 -0 0 -0 -0 0 0 0 0 0 0 0 -0 0 0 -0 -0 -0 -0 -0 -0 0 -0 -0 -0 -0 -0 -0 -0 0 0 0 0 0
0 0 0 0 -0 0 0 0 -0 -0 -0 -0 0 0 -0 -0 0 0 -0 0 0 0 0 0 0 0 0 0 -0 -0 -0 -0 -0 -0 -0 -0 -0 -0 -0 -0 0 0 -0 0 0 0 0 0 0
0 0 -0 0 0 0 0 0 -0 -0 0 -0 -0 -0 -0 0 0 0 -0 -0 -0 0 0 0 0 0 0 0 0 0 0 -0 -0 -0 -0 0 0 0 0 0 0 -0 -0 0 0 0 0 0 0
0 -0 -0 0 0 -0 0 -0 0 -0 0 -0 -0 -0 -0 0 0 0 -0 0 0 -0 0 0 0 0 0 0 0 0 0 0 0 0 0 0 0 0 0 0 -0 -0 -0 0 0 0 0 0 0
0 -0 0 0 -0 -0 0 0 0 -0 -0 0 -0 -0 -0 0 -0 -0 -0 0 0 -0 0 0 0 0 0 0 0 0 0 0 0 0 0 0 0 0 0 0 0 0 0 0 0 0 0 0 0
0 0 0 0 0 0 0 0 -0 -0 -0 -0 -0 -0 -0 0 0 -0 -0 -0 -0 -0 0 0 0 0 0 0 0 0 0 0 0 0 0 0 0 0 0 0 0 0 0 0 0 0 0 0 0
0 -0 0 0 0 0 0 0 0 -0 -0 -0 -0 -0 -0 -0 0 -0 -0 -0 -0 -0 -0 0 0 0 -0 0 0 0 0 0 0 0 0 0 0 0 0 0 0 0 0 0 0 0 0 0 0
0 -0 -0 0 0 -0 -0 0 -0 0 -0 -0 -0 -0 0 0 0 -0 0 0 0 -0 0 -0 0 0 0 0 0 0 0 0 0 0 0 0 0 0 0 0 0 0 0 0 0 0 0 0 -0
-0 -0 -0 0 0 0 -0 0 0 0 -0 -0 -0 -0 0 0 0 0 0 0 0 -0 -0 -0 -0 0 -0 0 0 -0 0 0 0 0 0 0 0 0 0 0 0 0 0 0 0 0 -0 -0 -0
0 -0 0 0 -0 0 -0 -0 -0 0 0 -0 -0 0 0 0 0 0 -0 -0 0 0 0 0 0 -0 -0 0 0 0 0 0 0 0 0 0 0 0 0 0 0 0 0 0 -0 -0 -0 -0 -0
0 0 0 0 0 -0 0 0 -0 -0 0 -0 -0 -0 0 0 0 0 0 -0 0 0 0 0 0 0 -0 0 0 0 0 0 0 0 0 0 0 0 0 0 0 0 0 0 -0 -0 -0 -0 -0
0 0 0 0 -0 -0 -0 0 0 0 -0 0 -0 -0 -0 0 -0 0 0 0 -0 0 0 -0 -0 0 -0 -0 -0 -0 -0 0 0 0 0 0 0 0 0 0 0 0 0 0 0 -0 -0 0 0
0 0 0 0 -0 0 -0 -0 -0 -0 0 0 -0 -0 0 -0 -0 0 0 0 -0 0 0 0 -0 -0 -0 0 0 0 -0 0 0 0 0 0 0 0 0 0 0 0 0 0 0 0 0 0 0
0 0 -0 0 0 -0 -0 0 -0 -0 0 0 0 -0 -0 -0 0 0 0 -0 0 0 0 0 -0 -0 -0 0 0 0 -0 0 0 0 0 0 0 0 0 0 0 0 0 0 0 0 0 -0 -0
0 0 0 0 0 -0 -0 -0 -0 -0 0 0 0 -0 0 0 -0 0 0 -0 -0 -0 -0 -0 -0 -0 -0 -0 0 0 0 0 0 0 0 0 0 0 0 0 0 0 0 0 0 0 0 0 0
-0 0 0 0 0 0 0 -0 -0 0 -0 0 0 0 -0 -0 0 -0 -0 0 -0 -0 0 0 -0 0 0 -0 -0 0 0 0 0 0 0 0 0 0 0 0 0 0 0 0 0 0 0 0 -0
0 -0 -0 0 0 0 0 0 -0 0 -0 0 0 0 0 0 0 -0 -0 -0 -0 -0 -0 0 0 0 0 0 -0 0 0 0 0 0 0 0 0 0 0 0 0 0 0 0 0 0 0 0 -0
0 -0 -0 -0 -0 0 0 0 0 -0 -0 -0 -0 0 0 0 0 0 0 -0 0 -0 0 0 0 0 0 0 0 0 0 -0 0 0 0 0 0 0 0 0 0 0 0 0 0 0 0 0 0
0 0 0 0 0 -0 0 0 -0 -0 -0 -0 0 -0 0 0 0 0 0 0 0 0 0 0 0 0 0 0 0 0 0 -0 -0 -0 -0 0 0 0 0 0 0 0 0 0 0 0 0 0 0
0 0 0 0 0 0 0 -0 0 -0 -0 0 -0 -0 -0 0 0 0 0 0 0 0 0 0 0 0 0 0 0 0 0 0 -0 -0 -0 -0 -0 0 0 0 0 0 0 0 0 0 0 0 0
0 0 0 0 0 0 0 0 0 0 -0 0 0 0 0 0 0 0 0 0 0 0 0 0 0 0 0 0 0 0 0 -0 0 -0 -0 -0 -0 -0 -0 0 0 0 0 0 0 0 0 0 0
0 0 0 0 0 0 0 0 0 -0 -0 -0 -0 -0 -0 -0 0 0 0 0 0 0 0 0 0 0 0 0 0 0 0 0 -0 -0 -0 -0 -0 -0 -0 -0 -0 -0 0 0 0 0 0 0 0
0 0 0 0 0 0 0 0 0 0 -0 -0 -0 -0 -0 -0 0 0 0 0 0 0 0 0 0 0 0 0 0 0 0 0 0 -0 -0 -0 -0 -0 -0 -0 -0 -0 -0 -0 -0 -0 0 -0 -0
0 0 0 0 0 0 0 0 0 0 0 -0 -0 -0 -0 -0 -0 0 0 0 0 0 0 0 0 0 0 0 0 0 0 0 0 -0 -0 -0 -0 -0 -0 -0 -0 -0 -0 -0 -0 -0 -0 -0 -0
Wind_Speed_500mb
5 8 8 6 6 6 4 7 5 5 6 7 24 4 12 9 4 4 22 13 16 19 18 18 18 21 23 23 21 19 18 23 22 22 20 18 20 22 23 20 20 24 27 28 29 30 33 36 36
7 6 5 2 8 6 5 6 9 3 13 34 30 20 11 6 9 24 21 22 20 28 31 26 28 26 24 21 18 21 26 27 26 24 22 18 19 23 25 25 27 28 29 30 30 35 34 33 32
2 2 3 6 6 4 6 11 11 17 25 7 12 18 8 4 23 31 28 29 31 34 34 31 28 27 26 21 21 27 26 25 25 23 22 22 24 28 27 25 28 29 31 28 30 32 31 27 23
7 3 7 8 12 6 6 12 24 5 18 9 29 15 14 8 34 25 32 30 32 34 33 35 30 26 26 25 25 24 31 26 26 25 23 19 22 24 26 28 29 30 26 28 30 31 31 26 27
8 7 8 7 5 4 8 15 24 6 8 14 11 9 11 15 17 37 32 30 29 32 30 29 28 24 26 25 23 23 28 29 30 28 29 23 27 33 35 31 32 29 27 28 29 27 23 21 21
9 7 6 4 6 5 4 16 20 12 13 18 19 16 6 15 28 38 32 28 24 22 26 23 24 22 22 22 23 26 29 32 32 33 33 32 37 40 37 33 30 27 25 24 23 22 21 21 24
10 6 5 6 10 5 8 18 12 7 14 10 17 9 12 29 31 33 32 26 23 21 21 24 26 21 21 18 25 26 29 32 31 34 33 32 32 34 34 31 27 24 23 23 25 21 21 23 23
8 7 4 2 8 7 4 11 21 22 5 23 10 11 14 41 36 33 31 27 24 23 20 18 19 23 20 20 22 25 27 29 31 32 33 31 32 32 30 28 26 24 24 24 24 22 23 20 17
5 7 6 9 10 12 15 3 27 14 23 7 6 23 39 46 41 35 32 31 28 25 22 19 16 16 19 20 21 23 26 27 30 30 32 29 30 32 31 29 28 27 28 29 24 21 19 16 15
6 5 2 5 13 13 17 20 14 8 26 9 27 27 44 44 42 39 38 36 33 28 26 22 19 19 19 18 20 24 26 26 31 30 28 27 28 30 29 28 28 28 29 30 26 22 15 10 9
2 3 6 16 36 44 25 7 9 4 6 12 39 48 49 44 41 38 36 32 29 27 27 24 21 20 20 20 22 25 27 26 28 28 27 26 24 27 29 32 31 32 31 30 25 18 12 8 7
4 6 9 22 31 19 17 4 12 15 1 14 44 54 54 44 43 39 38 34 34 31 27 23 25 24 28 30 26 21 23 26 27 27 25 23 22 26 32 36 32 32 32 27 23 16 11 8 8
6 12 18 26 21 25 16 8 8 14 14 27 52 51 50 41 39 36 34 33 32 32 30 24 27 30 29 22 18 16 17 20 20 22 22 24 22 27 29 26 26 27 26 28 22 17 13 11 12
9 20 28 24 22 18 17 8 4 14 15 41 51 54 49 43 41 39 38 35 36 35 30 29 28 29 26 14 15 14 14 18 22 21 20 19 18 19 15 17 20 23 25 27 23 23 18 19 20
25 9 10 11 23 11 20 4 7 31 28 47 46 54 50 46 42 43 36 36 36 35 31 35 31 27 20 16 19 13 15 13 20 21 17 11 12 14 12 11 17 20 24 23 18 14 11 9 12
7 9 7 4 8 3 10 4 7 20 25 38 52 50 49 50 48 43 36 28 32 35 32 37 32 25 24 19 12 9 8 10 20 14 9 16 14 18 13 11 12 19 18 17 14 10 8 6 2
10 3 5 4 7 7 3 5 11 40 28 34 45 50 46 50 52 46 41 30 27 34 33 34 32 24 27 24 19 13 14 13 12 13 6 19 20 17 14 12 10 14 16 15 12 11 8 6 3
8 3 4 7 8 3 6 2 6 19 33 31 43 51 54 54 62 50 45 40 33 30 30 35 33 22 26 28 22 19 17 15 13 17 15 23 24 18 17 18 14 10 14 9 11 10 6 6 5
8 5 3 4 11 7 10 9 13 19 18 23 26 45 54 67 58 52 51 45 44 36 29 41 40 30 33 29 27 23 18 17 15 19 27 21 20 19 16 19 15 15 11 7 8 5 4 7 12
5 3 7 3 9 4 4 7 9 21 13 31 23 38 56 58 57 56 58 55 52 43 35 43 39 36 33 25 20 18 16 14 18 30 19 17 21 21 17 19 17 12 9 4 7 6 4 3 2
6 9 7 1 8 2 1 2 10 13 25 40 35 42 41 61 64 59 58 62 56 51 43 40 43 37 32 31 27 26 22 18 21 25 21 17 23 15 15 21 21 14 7 3 6 4 2 6 5
5 13 13 12 7 1 5 6 4 8 9 31 55 51 48 52 59 60 62 60 65 59 50 45 44 35 32 38 31 28 20 20 16 21 17 19 21 15 14 14 25 22 19 11 10 12 10 13 8
8 16 13 6 8 2 1 5 9 3 11 20 36 61 60 56 58 69 66 58 55 61 57 51 47 41 35 38 36 30 26 21 15 17 15 20 19 17 11 9 21 24 22 18 15 12 14 13 2
19 16 17 9 6 8 6 4 8 5 9 8 42 57 72 64 58 69 65 57 65 61 64 55 54 46 41 41 41 35 32 26 24 23 16 23 22 24 14 10 26 19 20 20 18 17 15 17 10
13 12 7 6 6 10 7 3 15 11 9 16 21 50 62 71 61 69 69 65 65 69 65 60 57 55 49 46 44 44 41 34 30 26 23 20 23 25 19 13 21 22 15 23 20 15 13 14 10
15 13 11 11 8 6 7 8 10 9 10 27 27 38 61 73 75 69 67 68 66 66 61 62 57 54 55 51 43 43 43 40 33 27 27 27 24 17 21 18 16 22 24 20 23 19 21 20 18
9 5 8 14 5 4 5 12 9 7 11 14 17 6 37 59 77 79 71 71 69 72 71 68 62 56 53 48 49 47 49 47 44 39 33 31 29 24 22 22 24 20 21 24 19 22 20 19 18
7 9 7 7 7 4 9 9 9 9 15 10 9 20 28 47 61 77 76 74 71 74 72 70 64 61 56 56 49 50 50 52 48 46 42 35 34 33 30 27 27 25 20 21 22 20 19 18 18
5 3 14 11 6 10 2 12 13 9 8 9 10 14 21 38 53 65 76 68 71 73 76 76 69 64 64 61 58 53 53 54 54 51 49 47 39 38 37 29 32 34 31 26 27 27 25 23 23
3 6 9 10 8 3 6 10 4 12 15 13 14 11 12 25 40 50 58 63 64 66 68 70 70 68 66 54 60 60 56 51 59 58 51 51 46 44 43 35 29 36 39 33 31 27 24 24 25
Wind_Direction_500mb
48 23 28 31 59 68 43 358 60 90 112 116 153 185 136 71 105 181 128 118 142 151 153 152 147 152 166 175 172 187 166 150 142 138 142 141 150 146 144 132 139 122 110 109 111 110 108 104 99
25 41 52 62 72 53 58 4 68 296 132 125 104 104 61 87 109 136 123 123 135 124 120 121 120 121 123 131 148 165 155 146 137 131 117 110 149 143 127 128 137 121 115 110 106 105 104 102 100
16 80 4 82 85 88 69 55 85 87 139 130 111 85 75 76 131 130 129 126 125 122 119 119 120 118 112 106 110 136 137 131 127 123 115 116 115 125 126 128 122 122 117 113 107 104 103 102 101
213 93 55 65 89 44 28 18 19 59 87 61 112 74 78 87 133 135 132 128 129 124 118 113 105 105 113 106 113 120 135 131 122 112 107 110 120 123 123 121 125 122 119 112 105 105 103 99 96
129 65 63 82 60 24 7 14 9 336 47 94 86 102 77 141 146 147 138 135 131 127 122 120 118 110 96 105 105 124 128 123 115 111 107 108 116 121 119 119 119 121 118 113 113 110 103 100 89
73 89 77 102 93 50 27 9 357 335 80 97 86 85 87 130 149 155 152 146 142 136 125 121 122 117 110 117 108 109 109 113 114 110 103 101 99 104 109 111 117 118 117 115 122 122 112 101 83
92 61 111 127 112 71 352 1 6 3 99 53 132 84 131 149 156 159 163 159 155 148 139 134 131 122 126 115 112 103 102 107 109 110 105 105 104 107 113 123 126 126 126 130 135 130 119 98 72
91 95 42 317 126 110 356 357 272 264 46 148 107 152 172 162 158 155 165 166 166 160 147 134 126 130 129 130 118 115 111 117 118 114 109 104 110 113 114 119 124 125 130 134 135 117 106 93 74
61 85 155 191 143 127 142 189 237 271 168 127 336 147 158 155 161 163 164 169 169 165 151 142 133 131 133 134 128 126 125 122 127 121 115 112 111 112 114 117 125 130 130 136 138 124 113 100 76
52 64 32 157 128 132 137 208 204 176 157 97 106 135 156 158 166 173 171 172 171 166 156 151 145 138 140 142 135 133 132 128 125 122 117 114 112 111 113 118 123 125 127 132 135 132 124 108 72
74 76 49 75 123 140 158 186 230 146 193 204 158 155 163 162 169 179 177 175 169 165 165 160 154 144 143 137 131 131 136 135 130 127 123 118 117 115 117 118 117 112 114 123 127 128 124 112 66
81 28 124 129 138 121 138 330 260 190 40 221 176 166 166 168 173 179 181 182 180 174 169 169 155 148 143 135 126 130 134 136 138 137 132 128 120 116 117 118 115 116 120 119 117 123 134 128 114
79 95 107 133 133 128 118 6 63 196 238 179 166 172 175 172 180 182 182 182 183 182 175 170 163 157 153 143 137 140 141 143 143 142 139 134 121 117 126 125 124 125 119 114 118 125 119 90 105
141 119 126 143 129 148 128 261 147 208 164 170 172 177 182 182 187 189 190 185 183 180 174 175 167 167 165 165 151 141 148 161 153 153 145 134 132 131 129 130 139 136 120 115 114 114 112 96 102
104 85 86 139 147 159 181 219 119 171 170 171 175 183 190 195 196 200 191 194 192 183 185 175 171 168 170 160 152 129 136 147 156 161 164 164 158 158 150 149 152 153 140 137 142 142 128 104 87
111 95 139 219 192 103 175 169 193 161 167 181 183 189 200 201 203 205 201 200 203 199 191 185 185 187 202 189 185 180 145 128 177 192 199 176 159 171 174 167 163 159 160 158 166 166 165 172 140
16 173 98 168 244 135 133 189 192 181 194 191 180 195 201 208 213 214 206 208 206 204 211 197 200 208 210 209 209 183 175 156 151 178 178 185 171 172 174 179 167 156 159 168 177 173 162 97 125
228 244 186 159 191 148 130 175 145 189 183 194 189 203 209 211 214 212 211 207 205 198 211 198 189 179 173 179 181 171 178 174 173 156 150 158 164 170 175 185 182 173 160 180 213 225 222 263 258
136 188 218 149 176 132 200 164 195 158 184 169 197 208 214 217 220 217 212 209 210 204 199 192 187 189 184 181 182 181 176 188 175 170 150 151 168 172 174 188 175 168 151 110 140 188 236 270 260
287 167 194 45 149 60 147 228 199 175 184 192 197 211 216 214 216 214 210 209 209 207 204 197 193 191 195 192 189 189 176 164 165 179 164 157 167 165 179 181 178 172 157 135 167 195 0 212 218
208 200 142 100 123 195 142 288 147 224 176 193 210 213 213 215 213 205 209 209 209 211 211 205 199 202 203 203 199 190 186 176 180 176 183 179 182 174 185 195 193 194 202 194 200 187 313 347 309
206 206 116 121 89 71 50 293 191 229 190 197 195 208 213 215 216 207 205 209 213 214 215 212 208 210 207 205 208 202 219 193 186 182 172 182 180 189 196 204 201 208 215 223 251 266 259 283 280
232 104 114 122 93 115 342 65 272 126 187 214 211 206 207 211 214 205 206 208 214 216 220 216 216 211 212 206 207 221 217 208 204 195 199 191 197 194 206 228 208 207 215 224 224 244 271 259 160
120 81 47 54 46 6 322 113 278 219 208 206 210 213 211 207 207 209 210 221 224 224 218 221 220 215 218 213 215 222 222 214 208 201 208 206 213 205 217 238 201 189 201 204 216 225 252 242 245
78 60 27 16 13 225 344 38 246 248 260 234 253 221 214 212 206 206 212 217 217 220 218 220 221 218 219 222 225 229 227 219 217 217 220 215 209 210 216 211 198 209 210 217 223 217 231 238 231
172 157 150 180 188 243 29 235 262 213 284 311 295 233 210 212 212 212 211 210 214 215 217 223 220 220 220 223 227 222 218 223 222 219 217 230 225 217 218 215 216 215 225 230 228 237 248 254 256
198 178 168 103 2 70 240 294 301 252 279 346 343 191 210 212 210 211 213 212 215 215 217 220 223 223 224 228 228 227 228 230 235 227 228 226 229 233 227 229 225 225 231 231 230 232 248 262 264
123 140 80 15 128 237 299 283 242 250 260 235 255 225 218 211 217 216 214 214 214 215 220 222 227 228 230 230 232 234 235 235 234 233 232 234 234 230 235 229 221 222 232 236 235 241 248 272 276
54 60 55 109 99 150 189 274 212 191 176 216 267 263 240 227 223 218 214 216 217 218 221 224 230 234 236 233 235 239 240 235 233 234 236 235 242 241 230 236 242 237 238 248 249 250 255 266 273
173 135 136 122 210 100 139 273 205 169 178 181 205 251 272 259 235 232 219 215 220 221 223 229 237 239 238 243 238 242 242 240 235 235 237 238 244 233 226 236 245 253 243 246 256 253 259 272 276
Wind_Speed_850mb
5 8 8 6 6 6 4 7 5 5 6 7 24 4 12 9 4 4 22 13 16 19 18 18 18 21 23 23 21 19 18 23 22 22 20 18 20 22 23 20 20 24 27 28 29 30 33 36 36
7 6 5 2 8 6 5 6 9 3 13 34 30 20 11 6 9 24 21 22 20 28 31 26 28 26 24 21 18 21 26 27 26 24 22 18 19 23 25 25 27 28 29 30 30 35 34 33 32
2 2 3 6 6 4 6 11 11 17 25 7 12 18 8 4 23 31 28 29 31 34 34 31 28 27 26 21 21 27 26 25 25 23 22 22 24 28 27 25 28 29 31 28 30 32 31 27 23
7 3 7 8 12 6 6 12 24 5 18 9 29 15 14 8 34 25 32 30 32 34 33 35 30 26 26 25 25 24 31 26 26 25 23 19 22 24 26 28 29 30 26 28 30 31 31 26 27
8 7 8 7 5 4 8 15 24 6 8 14 11 9 11 15 17 37 32 30 29 32 30 29 28 24 26 25 23 23 28 29 30 28 29 23 27 33 35 31 32 29 27 28 29 27 23 21 21
9 7 6 4 6 5 4 16 20 12 13 18 19 16 6 15 28 38 32 28 24 22 26 23 24 22 22 22 23 26 29 32 32 33 33 32 37 40 37 33 30 27 25 24 23 22 21 21 24
10 6 5 6 10 5 8 18 12 7 14 10 17 9 12 29 31 33 32 26 23 21 21 24 26 21 21 18 25 26 29 32 31 34 33 32 32 34 34 31 27 24 23 23 25 21 21 23 23
8 7 4 2 8 7 4 11 21 22 5 23 10 11 14 41 36 33 31 27 24 23 20 18 19 23 20 20 22 25 27 29 31 32 33 31 32 32 30 28 26 24 24 24 24 22 23 20 17
5 7 6 9 10 12 15 3 27 14 23 7 6 23 39 46 41 35 32 31 28 25 22 19 16 16 19 20 21 23 26 27 30 30 32 29 30 32 31 29 28 27 28 29 24 21 19 16 15
6 5 2 5 13 13 17 20 14 8 26 9 27 27 44 44 42 39 38 36 33 28 26 22 19 19 19 18 20 24 26 26 31 30 28 27 28 30 29 28 28 28 29 30 26 22 15 10 9
2 3 6 16 36 44 25 7 9 4 6 12 39 48 49 44 41 38 36 32 29 27 27 24 21 20 20 20 22 25 27 26 28 28 27 26 24 27 29 32 31 32 31 30 25 18 12 8 7
4 6 9 22 31 19 17 4 12 15 1 14 44 54 54 44 43 39 38 34 34 31 27 23 25 24 28 30 26 21 23 26 27 27 25 23 22 26 32 36 32 32 32 27 23 16 11 8 8
6 12 18 26 21 25 16 8 8 14 14 27 52 51 50 41 39 36 34 33 32 32 30 24 27 30 29 22 18 16 17 20 20 22 22 24 22 27 29 26 26 27 26 28 22 17 13 11 12
9 20 28 24 22 18 17 8 4 14 15 41 51 54 49 43 41 39 38 35 36 35 30 29 28 29 26 14 15 14 14 18 22 21 20 19 18 19 15 17 20 23 25 27 23 23 18 19 20
25 9 10 11 23 11 20 4 7 31 28 47 46 54 50 46 42 43 36 36 36 35 31 35 31 27 20 16 19 13 15 13 20 21 17 11 12 14 12 11 17 20 24 23 18 14 11 9 12
7 9 7 4 8 3 10 4 7 20 25 38 52 50 49 50 48 43 36 28 32 35 32 37 32 25 24 19 12 9 8 10 20 14 9 16 14 18 13 11 12 19 18 17 14 10 8 6 2
10 3 5 4 7 7 3 5 11 40 28 34 45 50 46 50 52 46 41 30 27 34 33 34 32 24 27 24 19 13 14 13 12 13 6 19 20 17 14 12 10 14 16 15 12 11 8 6 3
8 3 4 7 8 3 6 2 6 19 33 31 43 51 54 54 62 50 45 40 33 30 30 35 33 22 26 28 22 19 17 15 13 17 15 23 24 18 17 18 14 10 14 9 11 10 6 6 5
8 5 3 4 11 7 10 9 13 19 18 23 26 45 54 67 58 52 51 45 44 36 29 41 40 30 33 29 27 23 18 17 15 19 27 21 20 19 16 19 15 15 11 7 8 5 4 7 12
5 3 7 3 9 4 4 7 9 21 13 31 23 38 56 58 57 56 58 55 52 43 35 43 39 36 33 25 20 18 16 14 18 30 19 17 21 21 17 19 17 12 9 4 7 6 4 3 2
6 9 7 1 8 2 1 2 10 13 25 40 35 42 41 61 64 59 58 62 56 51 43 40 43 37 32 31 27 26 22 18 21 25 21 17 23 15 15 21 21 14 7 3 6 4 2 6 5
5 13 13 12 7 1 5 6 4 8 9 31 55 51 48 52 59 60 62 60 65 59 50 45 44 35 32 38 31 28 20 20 16 21 17 19 21 15 14 14 25 22 19 11 10 12 10 13 8
8 16 13 6 8 2 1 5 9 3 11 20 36 61 60 56 58 69 66 58 55 61 57 51 47 41 35 38 36 30 26 21 15 17 15 20 19 17 11 9 21 24 22 18 15 12 14 13 2
19 16 17 9 6 8 6 4 8 5 9 8 42 57 72 64 58 69 65 57 65 61 64 55 54 46 41 41 41 35 32 26 24 23 16 23 22 24 14 10 26 19 20 20 18 17 15 17 10
13 12 7 6 6 10 7 3 15 11 9 16 21 50 62 71 61 69 69 65 65 69 65 60 57 55 49 46 44 44 41 34 30 26 23 20 23 25 19 13 21 22 15 23 20 15 13 14 10
15 13 11 11 8 6 7 8 10 9 10 27 27 38 61 73 75 69 67 68 66 66 61 62 57 54 55 51 43 43 43 40 33 27 27 27 24 17 21 18 16 22 24 20 23 19 21 20 18
9 5 8 14 5 4 5 12 9 7 11 14 17 6 37 59 77 79 71 71 69 72 71 68 62 56 53 48 49 47 49 47 44 39 33 31 29 24 22 22 24 20 21 24 19 22 20 19 18
7 9 7 7 7 4 9 9 9 9 15 10 9 20 28 47 61 77 76 74 71 74 72 70 64 61 56 56 49 50 50 52 48 46 42 35 34 33 30 27 27 25 20 21 22 20 19 18 18
5 3 14 11 6 10 2 12 13 9 8 9 10 14 21 38 53 65 76 68 71 73 76 76 69 64 64 61 58 53 53 54 54 51 49 47 39 38 37 29 32 34 31 26 27 27 25 23 23
3 6 9 10 8 3 6 10 4 12 15 13 14 11 12 25 40 50 58 63 64 66 68 70 70 68 66 54 60 60 56 51 59 58 51 51 46 44 43 35 29 36 39 33 31 27 24 24 25
Wind_Direction_850mb
48 23 28 31 59 68 43 358 60 90 112 116 153 185 136 71 105 181 128 118 142 151 153 152 147 152 166 175 172 187 166 150 142 138 142 141 150 146 144 132 139 122 110 109 111 110 108 104 99
25 41 52 62 72 53 58 4 68 296 132 125 104 104 61 87 109 136 123 123 135 124 120 121 120 121 123 131 148 165 155 146 137 131 117 110 149 143 127 128 137 121 115 110 106 105 104 102 100
16 80 4 82 85 88 69 55 85 87 139 130 111 85 75 76 131 130 129 126 125 122 119 119 120 118 112 106 110 136 137 131 127 123 115 116 115 125 126 128 122 122 117 113 107 104 103 102 101
213 93 55 65 89 44 28 18 19 59 87 61 112 74 78 87 133 135 132 128 129 124 118 113 105 105 113 106 113 120 135 131 122 112 107 110 120 123 123 121 125 122 119 112 105 105 103 99 96
129 65 63 82 60 24 7 14 9 336 47 94 86 102 77 141 146 147 138 135 131 127 122 120 118 110 96 105 105 124 128 123 115 111 107 108 116 121 119 119 119 121 118 113 113 110 103 100 89
73 89 77 102 93 50 27 9 357 335 80 97 86 85 87 130 149 155 152 146 142 136 125 121 122 117 110 117 108 109 109 113 114 110 103 101 99 104 109 111 117 118 117 115 122 122 112 101 83
92 61 111 127 112 71 352 1 6 3 99 53 132 84 131 149 156 159 163 159 155 148 139 134 131 122 126 115 112 103 102 107 109 110 105 105 104 107 113 123 126 126 126 130 135 130 119 98 72
91 95 42 317 126 110 356 357 272 264 46 148 107 152 172 162 158 155 165 166 166 160 147 134 126 130 129 130 118 115 111 117 118 114 109 104 110 113 114 119 124 125 130 134 135 117 106 93 74
61 85 155 191 143 127 142 189 237 271 168 127 336 147 158 155 161 163 164 169 169 165 151 142 133 131 133 134 128 126 125 122 127 121 115 112 111 112 114 117 125 130 130 136 138 124 113 100 76
52 64 32 157 128 132 137 208 204 176 157 97 106 135 156 158 166 173 171 172 171 166 156 151 145 138 140 142 135 133 132 128 125 122 117 114 112 111 113 118 123 125 127 132 135 132 124 108 72
74 76 49 75 123 140 158 186 230 146 193 204 158 155 163 162 169 179 177 175 169 165 165 160 154 144 143 137 131 131 136 135 130 127 123 118 117 115 117 118 117 112 114 123 127 128 124 112 66
81 28 124 129 138 121 138 330 260 190 40 221 176 166 166 168 173 179 181 182 180 174 169 169 155 148 143 135 126 130 134 136 138 137 132 128 120 116 117 118 115 116 120 119 117 123 134 128 114
79 95 107 133 133 128 118 6 63 196 238 179 166 172 175 172 180 182 182 182 183 182 175 170 163 157 153 143 137 140 141 143 143 142 139 134 121 117 126 125 124 125 119 114 118 125 119 90 105
141 119 126 143 129 148 128 261 147 208 164 170 172 177 182 182 187 189 190 185 183 180 174 175 167 167 165 165 151 141 148 161 153 153 145 134 132 131 129 130 139 136 120 115 114 114 112 96 102
104 85 86 139 147 159 181 219 119 171 170 171 175 183 190 195 196 200 191 194 192 183 185 175 171 168 170 160 152 129 136 147 156 161 164 164 158 158 150 149 152 153 140 137 142 142 128 104 87
111 95 139 219 192 103 175 169 193 161 167 181 183 189 200 201 203 205 201 200 203 199 191 185 185 187 202 189 185 180 145 128 177 192 199 176 159 171 174 167 163 159 160 158 166 166 165 172 140
16 173 98 168 244 135 133 189 192 181 194 191 180 195 201 208 213 214 206 208 206 204 211 197 200 208 210 209 209 183 175 156 151 178 178 185 171 172 174 179 167 156 159 168 177 173 162 97 125
228 244 186 159 191 148 130 175 145 189 183 194 189 203 209 211 214 212 211 207 205 198 211 198 189 179 173 179 181 171 178 174 173 156 150 158 164 170 175 185 182 173 160 180 213 225 222 263 258
136 188 218 149 176 132 200 164 195 158 184 169 197 208 214 217 220 217 212 209 210 204 199 192 187 189 184 181 182 181 176 188 175 170 150 151 168 172 174 188 175 168 151 110 140 188 236 270 260
287 167 194 45 149 60 147 228 199 175 184 192 197 211 216 214 216 214 210 209 209 207 204 197 193 191 195 192 189 189 176 164 165 179 164 157 167 165 179 181 178 172 157 135 167 195 0 212 218
208 200 142 100 123 195 142 288 147 224 176 193 210 213 213 215 213 205 209 209 209 211 211 205 199 202 203 203 199 190 186 176 180 176 183 179 182 174 185 195 193 194 202 194 200 187 313 347 309
206 206 116 121 89 71 50 293 191 229 190 197 195 208 213 215 216 207 205 209 213 214 215 212 208 210 207 205 208 202 219 193 186 182 172 182 180 189 196 204 201 208 215 223 251 266 259 283 280
232 104 114 122 93 115 342 65 272 126 187 214 211 206 207 211 214 205 206 208 214 216 220 216 216 211 212 206 207 221 217 208 204 195 199 191 197 194 206 228 208 207 215 224 224 244 271 259 160
120 81 47 54 46 6 322 113 278 219 208 206 210 213 211 207 207 209 210 221 224 224 218 221 220 215 218 213 215 222 222 214 208 201 208 206 213 205 217 238 201 189 201 204 216 225 252 242 245
78 60 27 16 13 225 344 38 246 248 260 234 253 221 214 212 206 206 212 217 217 220 218 220 221 218 219 222 225 229 227 219 217 217 220 215 209 210 216 211 198 209 210 217 223 217 231 238 231
172 157 150 180 188 243 29 235 262 213 284 311 295 233 210 212 212 212 211 210 214 215 217 223 220 220 220 223 227 222 218 223 222 219 217 230 225 217 218 215 216 215 225 230 228 237 248 254 256
198 178 168 103 2 70 240 294 301 252 279 346 343 191 210 212 210 211 213 212 215 215 217 220 223 223 224 228 228 227 228 230 235 227 228 226 229 233 227 229 225 225 231 231 230 232 248 262 264
123 140 80 15 128 237 299 283 242 250 260 235 255 225 218 211 217 216 214 214 214 215 220 222 227 228 230 230 232 234 235 235 234 233 232 234 234 230 235 229 221 222 232 236 235 241 248 272 276
54 60 55 109 99 150 189 274 212 191 176 216 267 263 240 227 223 218 214 216 217 218 221 224 230 234 236 233 235 239 240 235 233 234 236 235 242 241 230 236 242 237 238 248 249 250 255 266 273
173 135 136 122 210 100 139 273 205 169 178 181 205 251 272 259 235 232 219 215 220 221 223 229 237 239 238 243 238 242 242 240 235 235 237 238 244 233 226 236 245 253 243 246 256 253 259 272 276